Location: Capvern
(43.1036°N, 0.3160°E)
Time: 04:29:53
(UTC+00:00)

SL-08 RB Rocket - Pass Details

Date: 16 October 2021
Orbit: 646 x 683 km, 97.8° (Epoch: 02 December)

Event Time Altitude Azimuth Distance (km) Brightness Sun altitude
Rises 18:52:44 0° 174° (S) 2,961 6.9 -18.7°
Reaches altitude 10° 18:54:57 10° 177° (S) 2,060 6.1 -19.1°
Maximum altitude 18:59:25 64° 259° (W) 732 4.1 -20.0°
Drops below altitude 10° 19:03:58 10° 341° (NNW) 2,099 6.6 -20.8°
Sets 19:06:14 0° 345° (NNW) 3,023 7.4 -21.2°
